Terminal Aerodrome Forecast
Issued by NWS Blacksburg, VA

Home | Current Version | Previous Version | Text Only | Print | Product List | Glossary On
Versions: 1 2 3 4 5 6 7 8 9 10 11 12 13 14 15 16 17 18 19 20 21 22 23 24 25 26 27 28 29 30 31 32 33 34 35 36
000
FTUS41 KRNK 280531 CCA
TAFDAN
TAF COR
KDAN 280531Z 2806/2906 22003KT P6SM SKC
      TEMPO 2810/2812 5SM BR
     FM281400 28004KT P6SM SCT040
     FM290000 VRB03KT P6SM BKN250
      AMD NOT SKED=

USA.gov is the U.S. government's official web portal to all federal, state and local government web resources and services.